Regional Weather Roundup
Issued by NWS Portland, ME

Home | Current Version | Previous Version | Text Only | Print | Product List | Glossary On
Versions: 1 2 3 4 5 6 7 8 9 10 11 12 13 14 15 16 17 18 19 20 21 22 23 24 25 26 27 28 29 30 31 32 33 34 35 36 37 38 39 40 41 42 43 44 45 46 47 48 49 50
000
ASUS41 KGYX 011210
RWRGYX
WEATHER ROUNDUP FOR MAINE AND NEW HAMPSHIRE
NATIONAL WEATHER SERVICE GRAY ME
800 AM EDT SUN MAY 01 2016

MEZ002-005-006-010-012-015-018-020-021-024-026-027-029-011300-
MAINE

CITY           SKY/WX    TMP DP  RH WIND       PRES   REMARKS
PORTLAND       CLOUDY    47  36  65 S5        30.25R
6HR MIN TEMP:  38; 6HR MAX TEMP:  47;

SANFORD        CLOUDY    45  34  65 S3        30.24S
BAR HARBOR     MOSUNNY   45  36  70 S3        30.28R
WISCASSET      CLOUDY    44  40  85 CALM      30.27R
6HR MIN TEMP:  33; 6HR MAX TEMP:  44;

ROCKLAND       CLOUDY    45  41  86 S6        30.27R
FRYEBURG       CLOUDY    42  34  73 CALM      30.23S
6HR MIN TEMP:  32; 6HR MAX TEMP:  42;

LEWISTONAUBURN CLOUDY    39  34  81 CALM      30.24S
AUGUSTA        CLOUDY    41  37  86 SE5       30.25R
6HR MIN TEMP:  35; 6HR MAX TEMP:  41;

WATERVILLE     CLOUDY    41  37  86 CALM      30.23R
BANGOR         CLOUDY    47  35  63 S3        30.27R
6HR MIN TEMP:  34; 6HR MAX TEMP:  47;

GREENVILLE       N/A     44  20  38 VRB5      30.19R
6HR MIN TEMP:  34; 6HR MAX TEMP:  45;

MILLINOCKET    MOSUNNY   39  24  55 CALM      30.26S
6HR MIN TEMP:  28; 6HR MAX TEMP:  39;

HOULTON        SUNNY     42  24  49 N3        30.25R
6HR MIN TEMP:  23; 6HR MAX TEMP:  42;

PRESQUE ISLE   SUNNY     37  26  64 CALM      30.26S
6HR MIN TEMP:  22; 6HR MAX TEMP:  37;

FRENCHVILLE    SUNNY     40  24  53 CALM      30.24S
6HR MIN TEMP:  30; 6HR MAX TEMP:  42;

CARIBOU        SUNNY     40  25  55 CALM      30.25R
6HR MIN TEMP:  28; 6HR MAX TEMP:  40;

$$

NHZ002-005-008-009-011-012-014-011300-
NEW HAMPSHIRE

CITY           SKY/WX    TMP DP  RH WIND       PRES   REMARKS
PORTSMOUTH     CLOUDY    47  33  57 CALM      30.22S
ROCHESTER      MOSUNNY   45  34  65 CALM      30.22S
6HR MIN TEMP:  37; 6HR MAX TEMP:  45;

NASHUA         CLOUDY    48  31  51 S5        30.23F
MANCHESTER     CLOUDY    47  31  53 CALM      30.21F
6HR MIN TEMP:  45; 6HR MAX TEMP:  47;

CONCORD        CLOUDY    45  34  65 CALM      30.23S
6HR MIN TEMP:  39; 6HR MAX TEMP:  45;

LACONIA        MOSUNNY   45  34  65 CALM      30.22F
PLYMOUTH       PTSUNNY   42  35  76 CALM      30.22F
BERLIN         CLOUDY    36  27  69 CALM      30.20S
6HR MIN TEMP:  28; 6HR MAX TEMP:  36;

WHITEFIELD     CLOUDY    39  32  76 CALM      30.18F
6HR MIN TEMP:  31; 6HR MAX TEMP:  39;

JAFFREY        PTSUNNY   45  34  65 S3        30.22S
6HR MIN TEMP:  42; 6HR MAX TEMP:  45;

KEENE          CLOUDY    46  36  66 SW5       30.23R
LEBANON        CLOUDY    47  34  60 CALM      30.21R
6HR MIN TEMP:  42; 6HR MAX TEMP:  47;

MT WASHINGTON  CLOUDY    32  23  69 SW13        N/A
6HR MIN TEMP:  30; 6HR MAX TEMP:  32;

$$

VTZ005-007-008-011300-
VERMONT

CITY           SKY/WX    TMP DP  RH WIND       PRES   REMARKS
ST JOHNSBURY     N/A     40  26  57 MISG      30.18F
MONTPELIER     CLOUDY    41  28  60 CALM      30.22S
BURLINGTON     CLOUDY    47  27  45 CALM      30.17S
$$

MAZ007-012-024-CTZ003-RIZ002-NYZ038-NYZ072-011300-
SOUTHERN NEW ENGLAND AND NY

CITY           SKY/WX    TMP DP  RH WIND       PRES   REMARKS
BOSTON         CLOUDY    47  35  63 S6        30.26S
WORCESTER      CLOUDY    47  19  33 SW6       30.22S
NANTUCKET      CLOUDY    47  36  65 E8        30.27R
PROVIDENCE     CLOUDY    47  38  71 S5        30.26F
HARTFORD       CLOUDY    48  36  63 S3        30.22S
ALBANY         LGT RAIN  49  37  63 S6        30.19R
NEW YORK CITY  LGT RAIN  50  38  63 S9        30.22R
$$

ANZ081-ANZ082-ANZ150-NHZ014-MEZ023>029-011300-
COASTAL MARINE OBSERVATIONS

STATION/POSITION TIME  TEMP    WIND        PRES    WAVE
                       AIR SEA DIR/SP/G            HT/PER
                 (UTC) (F)     (DEG/KT/KT) (MB)    (FT/S)
MOUNT DESERT ROC 1200   45     180/  4/  4 1025.6R
MATINICUS ROCK   1100   44     160/  6/  7 1024.7R
ISLE OF SHOALS   1100   46     190/ 11/ 12 1023.5R
CASHES LEDGE BUO 1150   45 45  170/  8/ 10 1024.6S   2/ 8
GEORGES BANK BUO 1150   47 45              1024.9R   6/10
$$

.............KEY..............
   WCI - WIND CHILL
   TC  - TEMPERATURE IN CELSIUS
   VSB - VISIBILITY IN MILES
   HX  - HEAT INDEX
   FAIR- INDICATES FEW OR NO CLOUDS BELOW 12,000 FT, WITH NO
         SIGNIFICANT WEATHER AND/OR OBSTRUCTIONS TO VISIBILITY.






USA.gov is the U.S. government's official web portal to all federal, state and local government web resources and services.